GW4454 Weather Reports


time (UTC)temp
F
wind
direction
speed
knots
gust
knots
rain 1hr
in
rain 24hr
in
rain mn
in
humidity
%
barometer
mb
20260506231523 73 19 5.2 13.0 0.00 0.00 0.00 26 1018.6
20260506230024 72 65 7.0 26.9 0.00 0.00 0.00 26 1018.8
20260506224528 72 83 7.8 12.2 0.00 0.00 0.00 26 1018.7
20260506223018 71 352 5.2 14.8 0.00 0.00 0.00 28 1019.0
20260506221522 71 75 2.6 14.8 0.00 0.00 0.00 27 1019.0
20260506220024 72 50 4.3 12.2 0.00 0.00 0.00 27 1019.3
20260506214526 71 24 6.1 13.9 0.00 0.00 0.00 28 1019.3
20260506213028 71 360 7.0 11.3 0.00 0.00 0.00 28 1019.5
20260506211522 70 105 5.2 14.8 0.00 0.00 0.00 28 1019.6
20260506210009 70 35 7.0 11.3 0.00 0.00 0.00 29 1019.6
20260506204506 70 352 3.5 8.7 0.00 0.00 0.00 29 1019.6
20260506203013 70 46 7.0 12.2 0.00 0.00 0.00 29 1019.8
20260506201519 69 57 5.2 13.9 0.00 0.00 0.00 30 1019.9
20260506200003 68 87 2.6 11.3 0.00 0.00 0.00 29 1020.1
20260506194504 67 69 1.7 10.4 0.00 0.00 0.00 30 1020.1
20260506193009 67 32 2.6 9.6 0.00 0.00 0.00 26 1020.1
20260506191514 67 303 1.7 8.7 0.00 0.00 0.00 30 1020.2
20260506190019 67 331 4.3 8.7 0.00 0.00 0.00 30 1020.2
20260506184504 66 329 4.3 10.4 0.00 0.00 0.00 33 1020.3
20260506183008 66 24 1.7 7.0 0.00 0.00 0.00 34 1020.3
20260506181513 65 97 1.7 7.8 0.00 0.00 0.00 35 1020.3
20260506180025 64 29 2.6 7.8 0.00 0.00 0.00 37 1020.3
20260506174522 64 28 4.3 7.8 0.00 0.00 0.00 36 1020.2
20260506173016 64 327 4.3 7.0 0.00 0.00 0.00 38 1020.2
20260506171514 63 88 1.7 4.3 0.00 0.00 0.00 39 1020.2
20260506170016 62 94 3.5 7.0 0.00 0.00 0.00 40 1019.9
20260506164520 61 46 1.7 7.8 0.00 0.00 0.00 43 1019.9
20260506163030 60 306 2.6 7.0 0.00 0.00 0.00 43 1019.7
20260506161508 61 352 2.6 4.3 0.00 0.00 0.00 42 1019.7
20260506160017 59 283 0.9 7.0 0.00 0.00 0.00 43 1019.6
20260506154520 57 237 2.6 7.0 0.00 0.00 0.00 43 1019.5
20260506153022 56 257 6.1 9.6 0.00 0.00 0.00 47 1019.5
20260506151529 55 273 5.2 7.0 0.00 0.00 0.00 48 1019.5
20260506150010 54 317 0.9 3.5 0.00 0.00 0.00 51 1019.6
20260506144519 53 331 1.7 4.3 0.00 0.00 0.00 53 1019.4
20260506143026 54 63 0.0 2.6 0.00 0.00 0.00 49 1019.1
20260506141530 53 104 0.9 1.7 0.00 0.00 0.00 49 1019.0
20260506140026 51 84 1.7 4.3 0.00 0.00 0.00 52 1018.6
20260506134513 50 119 3.5 6.1 0.00 0.00 0.00 53 1018.4
20260506133018 50 144 2.6 7.0 0.00 0.00 0.00 54 1018.3
20260506131530 48 216 3.5 5.2 0.00 0.00 0.00 55 1018.2
20260506130026 48 228 2.6 5.2 0.00 0.00 0.00 56 1018.2
20260506124515 47 253 0.9 3.5 0.00 0.00 0.00 56 1018.2
20260506123022 49 171 2.6 4.3 0.00 0.00 0.00 53 1017.9
20260506121508 50 174 0.9 4.3 0.00 0.00 0.00 52 1017.9
20260506120004 50 221 0.9 2.6 0.00 0.00 0.00 52 1017.6
20260506114504 50 171 2.6 7.8 0.00 0.00 0.00 54 1017.6
20260506113005 49 225 7.0 9.6 0.00 0.00 0.00 59 1017.6
20260506111503 48 242 7.8 10.4 0.00 0.00 0.00 60 1017.6
20260506110004 48 234 7.8 13.0 0.00 0.00 0.00 60 1017.6
20260506104506 48 247 10.4 13.0 0.00 0.00 0.00 59 1017.6
20260506103008 48 229 9.6 13.0 0.00 0.00 0.00 60 1017.4
20260506101506 47 246 7.8 13.9 0.00 0.00 0.00 62 1017.4
20260506100004 47 239 10.4 16.5 0.00 0.00 0.00 64 1017.5
20260506094514 46 252 9.6 13.0 0.00 0.00 0.00 64 1017.4
20260506093008 47 240 9.6 14.8 0.00 0.00 0.00 65 1017.4
20260506091508 46 264 11.3 15.6 0.00 0.00 0.00 68 1017.4
20260506090007 45 236 12.2 14.8 0.00 0.00 0.00 69 1017.5
20260506084505 46 242 12.2 16.5 0.00 0.00 0.00 70 1017.5
20260506083005 45 245 13.0 16.5 0.00 0.00 0.00 69 1017.8
20260506081509 45 257 9.6 13.0 0.00 0.00 0.00 67 1017.7
20260506073015 46 240 11.3 14.8 0.00 0.00 0.00 66 1017.6
20260506071508 46 265 10.4 13.0 0.00 0.00 0.00 65 1017.6
20260506061508 47 228 4.3 12.2 0.00 0.00 0.00 66 1017.1
20260506044533 48 234 5.2 9.6 0.00 0.00 0.00 67 1016.4
20260506043012 47 213 7.8 14.8 0.00 0.00 0.00 69 1016.2
20260506041512 47 219 9.6 16.5 0.00 0.00 0.00 72 1016.2
20260506040013 47 265 11.3 15.6 0.00 0.00 0.00 72 1016.0
20260506034525 47 229 9.6 13.9 0.00 0.00 0.00 72 1016.0
20260506033016 47 238 7.8 13.9 0.00 0.00 0.00 72 1016.2
20260506031516 47 239 7.8 12.2 0.00 0.00 0.00 71 1015.8
20260506030004 47 237 9.6 14.8 0.00 0.00 0.00 71 1015.6
20260506024509 48 268 11.3 15.6 0.00 0.00 0.00 70 1015.4
20260506023016 48 263 10.4 16.5 0.00 0.00 0.00 69 1015.2
20260506021516 49 262 10.4 14.8 0.00 0.00 0.00 68 1014.9
20260506020020 50 236 12.2 20.0 0.00 0.00 0.00 67 1014.9
20260506014507 50 240 11.3 15.6 0.00 0.00 0.00 66 1014.6
20260506013014 51 265 13.9 18.2 0.00 0.00 0.00 65 1014.6
20260506011520 51 254 11.3 15.6 0.00 0.00 0.00 63 1014.6
20260506010019 52 254 9.6 17.4 0.00 0.00 0.00 62 1014.6
20260506004532 52 240 13.0 18.2 0.00 0.00 0.00 62 1014.4
20260506003011 52 259 9.6 16.5 0.00 0.00 0.00 61 1014.2
20260506001513 52 246 11.3 17.4 0.00 0.00 0.00 62 1014.1
20260506000025 52 234 11.3 18.2 0.00 0.00 0.00 62 1014.0
20260505234533 52 225 11.3 18.2 0.00 0.00 0.00 63 1013.9
20260505233023 52 259 13.9 18.2 0.00 0.00 0.00 62 1014.0